Flag for Saudi Arabia Weather past 2 weeks in Qatif, Saudi Arabia

Now
79 °F

Sunny.


Feels Like: 78 °F
Forecast: 59 / 76 °F
Wind: 9 mph from South

Location: King Fahd International Airport

Current Time: Jan 27, 2015 at 3:21:29 PM

Latest Report: Jan 27, 2015 at 3:00 PM


Visibility: 10 mi

Pressure: 30.04 "Hg

Humidity: 15%

Dew point: 27 °F

Location of QatifLocation

Historic Weather in Qatif — Graph

°F

Qatif temperature yesterday

Maximum temperature yesterday: 73 °F (at 3:00 PM)
Minimum temperature yesterday: 45 °F (at 5:00 AM)
Average temperature yesterday: 58 °F

Past Weeks' High & Low Weather Summary

 TemperatureHumidityPressure
High77 °F (Jan 27, 1:00 PM)100% (Jan 26, 5:00 AM)30.36 "Hg (Jan 26, 5:00 AM)
Low43 °F (Jan 13, 7:00 AM)14% (Jan 27, 2:00 PM)30.01 "Hg (Jan 17, 3:00 PM)
Average56 °F57%30.16 "Hg
* Reported Jan 12 2:00 PM — Jan 27 2:00 PM, Qatif, Weather by CustomWeather, © 2014

Note: Actual official high and low records may vary slightly from our data, if they occured in-between our weather recording intervals... More about our weather records

Advertising

Qatif weather history for previous 24 hours

 ConditionsComfort  
Time TempWeatherWind HumidityBarometerVisibility
2:00 PM
Jan 27
77 °FSunny.9 mph14%30.07 "Hg10 mi
1:00 PM77 °FSunny.10 mph18%30.07 "Hg10 mi
12:00 PM72 °FSunny.8 mph23%30.12 "Hg10 mi
11:00 AM68 °FSunny.8 mph28%30.15 "Hg10 mi
10:00 AM64 °FSunny.8 mph34%30.15 "Hg10 mi
9:00 AM59 °FSunny.10 mph48%30.15 "Hg4 mi
8:00 AM54 °FSunny.7 mph67%30.15 "Hg3 mi
7:00 AM50 °FHaze.8 mph76%30.12 "Hg2 mi
6:00 AM48 °FFog.7 mph82%30.12 "Hg2 mi
5:00 AM48 °FFog.8 mph87%30.09 "Hg2 mi
4:00 AM50 °FFog.7 mph88%30.09 "Hg2 mi
3:00 AM52 °FFog.5 mph82%30.12 "Hg2 mi
2:00 AM54 °FFog.8 mph82%30.12 "Hg3 mi
1:00 AM52 °FClear.5 mph77%30.12 "Hg5 mi
12:00 AM55 °FClear.5 mph63%30.15 "Hg10 mi
11:00 PM
Jan 26
57 °FClear.8 mph63%30.15 "Hg10 mi
10:00 PM57 °FClear.7 mph59%30.18 "Hg10 mi
9:00 PM59 °FClear.8 mph59%30.18 "Hg10 mi
8:00 PM61 °FClear.9 mph55%30.18 "Hg10 mi
7:00 PM63 °FClear.7 mph52%30.18 "Hg10 mi
6:00 PM63 °FClear.8 mph45%30.15 "Hg10 mi
5:00 PM72 °FSunny.8 mph25%30.15 "Hg10 mi
4:00 PM72 °FSunny.5 mph29%30.15 "Hg10 mi
3:00 PM73 °FSunny.8 mph27%30.15 "Hg10 mi
Weather by CustomWeather, © 2014

See weather overviewHow to use our weather pages